Long Beach, CA

3:59 PM PDT on July 29, 2016 (GMT -0700)
Long Beach

Weather History for KLGB - December, 2011

Change the Weather History Date:

Wednesday, December 21, 2011

  Actual Average Record
Temperature  
Mean Temperature 51 °F 56 °F  
Max Temperature 61 °F 66 °F 80 °F (1972)
Min Temperature 41 °F 45 °F 31 °F (1968)
Degree Days  
Heating Degree Days 14 9  
Month to date heating degree days 231 180  
Since 1 July heating degree days 418 329  
Cooling Degree Days 0 0  
Month to date cooling degree days 0 0  
Year to date cooling degree days 891 1125  
Growing Degree Days 2 (Base 50)    
Moisture  
Dew Point 47 °F    
Average Humidity 80    
Maximum Humidity 92    
Minimum Humidity 67    
Precipitation  
Precipitation 0.00 in 0.07 in 1.21 in (2010)
Month to date precipitation 1.28 1.20  
Year to date precipitation 9.30 11.51  
Since 1 July precipitation 3.16  
Sea Level Pressure  
Sea Level Pressure 30.03 in    
Wind  
Wind Speed 2 mph (South)    
Max Wind Speed 10 mph    
Max Gust Speed 14 mph    
Visibility 9 miles    
Events      
T = Trace of Precipitation, MM = Missing Value Source: NWS Daily Summary

Daily Weather History Graph

Daily Weather History Graph

Search for Another Location

Airport or City:

Trip Planner

Search our weather history database for the weather conditions in past years. The results will help you decide how hot, cold, wet, or windy it might be!

Date:

Astronomy

Dec. 21, 2011 Rise Set
Actual Time 6:53 AM PST 4:47 PM PST
Civil Twilight 6:25 AM PST 5:15 PM PST
Nautical Twilight 5:54 AM PST 5:46 PM PST
Astronomical Twilight 5:24 AM PST 6:17 PM PST
Moon 3:35 AM PST (12/21) 2:08 PM PST (12/21)
Length of Visible Light 10h 49m
Length of Day
9h 54m
Waning Crescent, 11% of the Moon is Illuminated
Dec 21
Waning Crescent
Dec 24
New
Dec 31
First Quarter
Jan 8
Full
Jan 16
Last Quarter

Hourly Weather History & Observations

Time (PST) Temp. Windchill Dew Point Humidity Pressure Visibility Wind Dir Wind Speed Gust Speed Precip Events Conditions
12:53 AM 48.9 °F - 45.0 °F 86% 29.99 in 9.0 mi Calm Calm - N/A   Clear
1:53 AM 44.1 °F 41.5 °F 42.1 °F 93% 30.01 in 8.0 mi WNW 4.6 mph - N/A   Clear
2:53 AM 44.1 °F - 41.0 °F 89% 30.01 in 8.0 mi Calm Calm - N/A   Clear
3:53 AM 45.0 °F - 41.0 °F 86% 29.99 in 9.0 mi Calm Calm - N/A   Clear
4:53 AM 42.1 °F - 39.9 °F 92% 30.00 in 8.0 mi Calm Calm - N/A   Clear
5:53 AM 42.1 °F - 37.9 °F 85% 30.03 in 8.0 mi Calm Calm - N/A   Clear
6:53 AM 42.1 °F - 37.9 °F 85% 30.04 in 8.0 mi Calm Calm - N/A   Clear
7:53 AM 45.0 °F - 39.9 °F 82% 30.05 in 8.0 mi Calm Calm - N/A   Clear
8:53 AM 51.1 °F - 42.1 °F 71% 30.06 in 9.0 mi Calm Calm - N/A   Clear
9:53 AM 57.2 °F - 46.4 °F 67% 30.07 in 10.0 mi ESE 3.5 mph - N/A   Clear
10:53 AM 59.0 °F - 51.1 °F 75% 30.06 in 10.0 mi Variable 5.8 mph - N/A   Clear
11:15 AM 60.8 °F - 51.8 °F 72% 30.05 in 10.0 mi South 5.8 mph - N/A   Partly Cloudy
11:53 AM 61.0 °F - 52.0 °F 72% 30.03 in 10.0 mi South 5.8 mph - N/A   Scattered Clouds
12:53 PM 60.1 °F - 52.0 °F 75% 30.00 in 10.0 mi Variable 6.9 mph - N/A   Partly Cloudy
1:53 PM 61.0 °F - 53.1 °F 75% 29.99 in 10.0 mi South 4.6 mph - N/A   Clear
2:53 PM 60.1 °F - 50.0 °F 69% 29.98 in 10.0 mi SSW 6.9 mph - N/A   Partly Cloudy
3:53 PM 59.0 °F - 48.9 °F 69% 29.98 in 10.0 mi SSW 5.8 mph - N/A   Clear
4:53 PM 57.9 °F - 50.0 °F 75% 29.98 in 10.0 mi South 4.6 mph - N/A   Clear
5:53 PM 55.9 °F - 50.0 °F 80% 30.01 in 10.0 mi Calm Calm - N/A   Clear
6:53 PM 55.9 °F - 50.0 °F 80% 30.02 in 10.0 mi Calm Calm - N/A   Clear
7:53 PM 54.0 °F - 50.0 °F 86% 30.04 in 10.0 mi Calm Calm - N/A   Scattered Clouds
8:53 PM 51.1 °F - 48.0 °F 89% 30.06 in 6.0 mi Calm Calm - N/A   Clear
9:53 PM 51.1 °F - 48.9 °F 92% 30.07 in 7.0 mi Calm Calm - N/A   Scattered Clouds
10:53 PM 51.1 °F - 48.9 °F 92% 30.09 in 6.0 mi Calm Calm - N/A   Overcast
11:53 PM 51.1 °F - 48.9 °F 92% 30.09 in 6.0 mi Calm Calm - N/A   Overcast